Short Creek, WV

3:11 AM EST on January 17, 2017 (GMT -0500)
Wheeling-Ohio County

Weather History for KHLG - April, 2014

Change the Weather History Date:

Friday, April 11, 2014

  Actual Average Record
Temperature  
Mean Temperature 56 °F 50 °F  
Max Temperature 66 °F 60 °F 76 °F (2002)
Min Temperature 45 °F 40 °F 32 °F (1952)
Degree Days  
Heating Degree Days 9 15  
Month to date heating degree days 155 188  
Since 1 July heating degree days 5554 5128  
Cooling Degree Days 0    
Month to date cooling degree days 0  
Year to date cooling degree days 0  
Growing Degree Days 8 (Base 50)    
Moisture  
Dew Point 48 °F    
Average Humidity 63    
Maximum Humidity 96    
Minimum Humidity 29    
Precipitation  
Precipitation 0.21 in 0.11 in 0.90 in (1990)
Month to date precipitation 1.70 1.14  
Sea Level Pressure  
Sea Level Pressure 30.01 in    
Wind  
Wind Speed 9 mph (WSW)    
Max Wind Speed 22 mph    
Max Gust Speed 30 mph    
Visibility 9 miles    
Events Rain    
T = Trace of Precipitation, MM = Missing Value Source: NWS Daily Summary

Daily Weather History Graph

Daily Weather History Graph

Search for Another Location

Airport or City:

Trip Planner

Search our weather history database for the weather conditions in past years. The results will help you decide how hot, cold, wet, or windy it might be!

Date:

Astronomy

Apr. 11, 2014 Rise Set
Actual Time 6:50 AM EDT 7:57 PM EDT
Civil Twilight 6:22 AM EDT 8:25 PM EDT
Nautical Twilight 5:49 AM EDT 8:58 PM EDT
Astronomical Twilight 5:14 AM EDT 9:33 PM EDT
Moon 4:36 PM EDT (4/11) 4:45 AM EDT (4/11)
Length of Visible Light 14h 02m
Length of Day
13h 06m
Waxing Gibbous, 87% of the Moon is Illuminated
Apr 11
Waxing Gibbous
Apr 15
Full
Apr 22
Last Quarter
Apr 29
New
May 6
First Quarter

Hourly Weather History & Observations

Time (EDT) Temp. Dew Point Humidity Pressure Visibility Wind Dir Wind Speed Gust Speed Precip Events Conditions
12:53 AM 66.0 °F 33.1 °F 29% 29.90 in 10.0 mi SW 16.1 mph 24.2 mph N/A   Partly Cloudy
1:53 AM 66.0 °F 34.0 °F 30% 29.95 in 10.0 mi West 12.7 mph - N/A   Overcast
2:53 AM 60.1 °F 46.0 °F 60% 30.00 in 10.0 mi WNW 18.4 mph 26.5 mph 0.00 in   Overcast
3:53 AM 55.0 °F 50.0 °F 83% 30.00 in 10.0 mi West 9.2 mph - 0.00 in Rain Light Rain
4:53 AM 54.0 °F 50.0 °F 86% 29.98 in 10.0 mi SSW 8.1 mph - 0.03 in Rain Light Rain
5:53 AM 54.0 °F 50.0 °F 86% 29.99 in 10.0 mi South 5.8 mph - 0.03 in   Overcast
6:53 AM 55.0 °F 50.0 °F 83% 30.01 in 10.0 mi WSW 3.5 mph - N/A   Overcast
7:53 AM 54.0 °F 50.0 °F 86% 30.01 in 10.0 mi SSW 11.5 mph - 0.02 in Rain Light Rain
8:53 AM 54.0 °F 48.9 °F 83% 30.03 in 6.0 mi SW 11.5 mph - 0.02 in Rain Light Rain
9:53 AM 53.1 °F 48.9 °F 86% 30.02 in 6.0 mi SSW 17.3 mph 25.3 mph 0.01 in Rain Light Rain
10:53 AM 52.0 °F 50.0 °F 93% 30.02 in 8.0 mi SSW 11.5 mph - 0.03 in Rain Light Rain
11:53 AM 53.1 °F 48.9 °F 86% 30.02 in 3.0 mi SSW 9.2 mph - 0.04 in Rain Light Rain
12:53 PM 53.1 °F 48.9 °F 86% 30.01 in 10.0 mi SSW 13.8 mph 26.5 mph 0.03 in   Overcast
1:53 PM 53.1 °F 48.9 °F 86% 30.01 in 10.0 mi SW 9.2 mph - N/A   Overcast
2:53 PM 55.9 °F 50.0 °F 80% 29.99 in 10.0 mi SSW 11.5 mph 20.7 mph N/A   Overcast
3:53 PM 57.9 °F 50.0 °F 75% 29.99 in 10.0 mi SW 9.2 mph 17.3 mph N/A   Overcast
4:53 PM 61.0 °F 51.1 °F 70% 29.98 in 10.0 mi SW 8.1 mph - N/A   Mostly Cloudy
5:53 PM 60.1 °F 50.0 °F 69% 29.99 in 10.0 mi WNW 4.6 mph - 0.00 in Rain Light Rain
6:53 PM 57.9 °F 50.0 °F 75% 30.01 in 10.0 mi North 8.1 mph - 0.00 in   Overcast
7:10 PM 57.9 °F 50.0 °F 75% 30.00 in 10.0 mi NNE 5.8 mph - N/A   Mostly Cloudy
7:53 PM 55.9 °F 48.9 °F 77% 30.03 in 10.0 mi NNE 5.8 mph - N/A   Clear
8:53 PM 53.1 °F 48.0 °F 83% 30.06 in 10.0 mi NNE 4.6 mph - N/A   Clear
9:53 PM 51.1 °F 46.9 °F 86% 30.09 in 8.0 mi NE 5.8 mph - N/A   Partly Cloudy
10:53 PM 50.0 °F 46.9 °F 89% 30.11 in 7.0 mi NNE 3.5 mph - N/A   Clear
11:53 PM 48.9 °F 46.0 °F 90% 30.12 in 7.0 mi Calm Calm - N/A   Clear